Wind_Speed
20 20 21 21 22 22 21 20 20 19 19 19 19 20 20 21 21 20 19 18 18 17 18 18 17 17 17 17 17 16 15 15 15 15 15 15 15 15 15 14 14 14 13 13 14 13 13 14 14
21 21 22 23 24 23 21 21 21 21 21 21 21 22 22 23 22 22 21 20 20 19 19 19 19 19 19 19 18 18 17 17 17 17 17 17 17 17 16 16 15 15 15 15 15 15 15 15 14
22 23 23 24 25 23 22 22 23 23 22 22 23 24 24 24 23 23 23 23 22 22 21 21 21 21 21 20 20 20 20 19 19 19 19 19 18 18 18 18 18 17 17 16 16 16 16 17 16
23 24 25 26 25 24 24 25 25 25 25 25 25 25 25 25 25 25 25 25 24 24 23 23 23 23 23 22 22 22 21 21 21 21 20 20 20 20 20 20 20 19 19 18 17 17 17 18 18
24 25 26 27 26 25 25 26 27 26 27 27 27 26 27 26 27 26 26 26 26 26 25 25 25 25 25 24 24 24 24 23 24 23 22 22 22 22 21 22 22 21 21 21 19 19 19 19 19
25 26 28 27 26 26 26 27 29 29 29 29 29 29 29 28 28 28 28 28 28 28 27 27 27 27 27 27 26 26 26 26 26 25 24 24 24 24 24 24 23 23 22 22 22 22 22 21 21
27 28 28 28 28 28 27 28 30 30 30 31 31 31 31 31 30 30 30 31 31 30 30 29 29 29 29 29 28 28 28 28 28 28 27 27 27 27 27 26 25 25 24 24 24 24 24 24 24
27 29 28 29 29 29 28 30 31 31 31 32 32 32 33 32 32 32 32 33 33 32 32 31 31 31 31 31 31 30 30 30 30 29 29 29 29 29 29 29 28 28 27 27 27 27 27 27 26
28 29 29 28 30 29 30 30 31 31 32 33 34 34 34 33 33 33 34 34 34 34 34 33 33 33 33 33 33 33 32 32 32 32 32 32 32 32 32 31 31 30 30 30 29 29 28 28 28
29 30 29 29 31 31 32 32 33 32 33 34 34 35 35 35 35 35 35 35 35 36 36 36 36 35 35 35 35 35 35 35 35 35 35 34 34 34 34 34 34 33 33 32 32 31 31 30 30
29 30 30 31 32 32 33 34 34 35 35 36 36 36 36 36 36 37 37 36 36 37 37 38 38 37 37 37 38 38 37 37 37 37 37 37 36 36 37 36 36 35 35 35 34 34 33 33 32
30 31 31 32 33 33 34 35 36 36 37 37 37 37 38 38 38 38 39 38 38 39 39 39 39 39 39 39 40 39 39 39 39 38 38 38 38 38 38 38 38 38 37 37 36 37 36 35 35
31 31 32 33 33 34 35 36 37 37 37 37 37 38 38 39 38 39 40 40 40 40 40 41 41 41 41 41 41 41 40 40 39 39 39 38 38 38 39 39 39 40 39 39 38 38 38 37 37
32 32 32 33 34 35 36 37 38 37 38 38 38 38 38 39 38 39 39 40 41 41 41 41 41 42 41 41 41 41 41 40 40 41 41 41 41 40 40 40 40 40 40 40 40 40 39 39 39
32 33 33 34 34 35 37 38 37 37 38 38 38 38 38 38 38 39 39 40 40 41 41 41 42 42 41 41 41 41 41 41 42 42 42 43 43 42 42 42 42 42 42 42 41 41 40 40 40
33 34 34 34 35 36 36 37 37 38 38 38 38 38 38 38 38 38 39 39 40 40 41 41 42 42 41 41 41 41 41 42 42 42 42 43 43 43 43 42 42 43 43 43 43 42 42 41 41
33 34 34 34 35 35 36 36 37 37 38 38 38 38 38 39 39 39 39 40 40 40 41 42 42 42 43 43 43 43 43 43 43 43 43 43 43 44 44 43 43 43 43 43 43 43 43 42 42
33 33 34 34 33 34 34 34 35 36 37 38 38 38 38 39 39 39 40 40 41 41 41 42 42 43 43 44 44 45 44 44 43 44 44 43 43 44 44 45 44 44 44 44 44 44 44 44 43
31 32 32 32 32 33 33 33 33 34 35 36 36 37 38 39 39 39 39 40 40 41 41 42 42 42 43 44 45 45 46 45 45 45 44 44 44 44 44 45 45 45 45 45 45 45 45 45 45
30 31 32 32 32 32 33 33 32 32 33 34 35 35 36 38 38 38 39 39 39 40 40 41 41 42 43 44 45 45 46 46 46 45 45 44 44 44 44 44 44 45 44 45 45 45 45 45 45
29 31 31 32 32 33 33 32 32 31 32 33 33 34 35 36 37 37 38 38 39 39 39 39 40 41 41 43 44 44 45 46 46 46 45 45 44 44 44 44 44 44 45 44 45 45 45 45 45
29 29 30 31 32 32 32 34 31 31 32 33 33 34 34 36 38 38 38 38 38 38 39 39 40 40 40 42 43 44 44 44 44 45 45 45 45 44 44 43 43 43 44 44 44 44 44 44 45
28 28 29 30 31 32 32 35 33 32 32 33 33 33 34 36 37 37 38 38 38 39 39 40 40 40 41 42 42 43 43 44 44 44 44 44 44 44 43 43 43 43 43 43 44 44 44 44 45
27 27 28 29 30 31 31 33 33 31 31 32 34 34 34 35 36 37 37 38 38 39 39 40 40 40 41 41 41 42 43 43 44 44 43 42 42 42 42 42 42 42 42 42 42 43 43 43 43
27 28 29 29 30 30 30 32 31 31 31 32 33 34 35 36 36 36 37 38 38 38 39 40 40 40 41 41 42 42 42 41 42 42 42 42 42 42 41 41 41 42 42 42 43 42 42 42 42
26 27 27 28 29 29 29 31 30 30 31 31 32 33 34 35 35 36 37 38 38 39 39 40 41 41 41 41 42 42 42 41 41 41 41 41 42 42 41 41 41 42 43 42 43 43 43 43 43
25 25 25 27 29 30 30 31 30 30 31 32 33 33 34 35 36 36 37 38 38 39 40 40 41 41 42 42 42 42 42 41 42 41 41 41 41 41 41 41 41 41 42 42 42 42 42 43 42
24 24 24 25 27 29 29 30 30 30 31 32 33 33 34 35 36 36 37 38 38 39 39 40 40 40 41 41 41 41 41 41 42 41 42 42 42 41 41 41 40 40 41 41 41 41 41 42 42
23 23 24 25 26 27 28 28 28 30 30 31 32 33 33 34 35 35 35 36 37 37 38 38 38 38 38 38 38 39 39 39 40 40 39 40 40 41 40 40 39 39 39 39 40 40 40 41 41
23 24 25 26 26 27 28 29 28 30 31 31 32 32 33 34 34 34 34 35 36 36 36 36 35 35 35 35 35 36 36 36 37 37 37 37 38 38 38 38 37 37 37 37 39 39 39 40 40
Wind_Direction
245 245 245 247 248 250 249 249 251 252 252 253 254 254 256 258 260 263 264 261 259 259 258 258 259 259 259 260 262 262 262 260 261 260 259 257 259 259 261 262 263 263 262 263 263 262 259 255 254
246 247 247 248 249 250 251 253 253 253 255 255 255 256 257 259 261 263 264 263 261 261 260 260 259 258 258 259 261 261 261 261 261 260 259 258 258 259 261 262 262 263 264 265 264 261 260 257 254
247 248 249 249 250 252 254 255 256 256 255 257 256 256 258 260 262 263 263 263 262 261 261 261 260 259 259 259 259 259 259 260 260 259 258 257 257 258 260 261 262 262 264 265 265 262 261 257 255
251 249 251 252 253 254 255 256 255 255 256 257 258 258 259 260 261 261 262 263 263 262 261 261 260 260 260 260 260 260 259 259 258 258 258 257 258 258 259 260 262 262 263 264 264 262 262 261 258
253 251 252 253 254 254 254 256 257 256 257 258 258 259 260 261 261 261 262 263 263 262 261 261 261 260 259 260 260 259 260 260 258 256 257 257 258 259 259 260 261 262 262 262 263 263 263 264 263
254 253 253 254 255 255 254 257 258 257 258 259 259 260 261 261 261 262 262 262 262 261 260 260 260 260 260 260 260 260 259 259 258 257 257 258 258 258 258 258 260 261 261 261 262 263 264 263 263
256 254 255 256 256 256 256 257 258 258 259 259 260 260 261 261 261 262 262 261 262 262 261 260 260 260 260 259 259 260 260 259 258 257 257 257 258 259 259 259 260 261 261 262 263 264 264 263 262
258 258 257 257 258 258 257 258 259 260 260 261 261 261 261 262 261 262 261 261 261 261 261 261 260 259 260 260 259 260 260 260 260 259 259 259 259 259 260 260 261 262 262 262 262 263 263 263 262
259 259 259 259 259 259 257 258 260 261 262 261 261 262 262 262 261 261 261 261 261 261 261 261 262 261 260 260 260 260 260 261 262 262 261 260 260 260 260 260 261 261 261 262 262 262 263 263 263
261 262 262 261 260 259 259 259 260 260 262 263 263 262 262 262 261 261 260 260 261 261 261 261 262 262 262 262 262 261 261 262 262 262 262 261 260 260 260 261 261 261 261 261 262 262 263 263 262
263 264 264 262 262 261 261 261 262 262 263 264 264 263 264 262 261 261 260 260 260 261 262 262 263 263 262 262 262 262 263 262 262 261 261 261 260 260 260 260 261 261 261 261 261 262 262 262 262
266 266 266 265 263 262 263 263 263 263 264 266 265 264 263 262 262 261 261 261 261 261 262 263 263 264 263 263 263 263 264 263 262 262 262 261 261 261 260 260 261 261 261 261 261 262 263 263 262
267 268 267 266 265 264 264 264 264 264 265 265 265 264 264 264 263 263 262 261 261 261 262 262 263 264 264 263 263 264 264 263 262 262 261 261 261 261 261 260 261 261 261 261 262 262 262 262 262
269 268 268 268 267 266 265 265 265 265 265 265 264 264 265 265 264 264 263 263 262 262 262 262 262 263 263 263 263 263 262 262 262 262 261 261 261 261 260 261 260 261 261 262 261 261 262 261 261
270 269 269 269 270 269 268 266 267 267 266 265 265 264 265 265 265 265 264 263 263 263 263 263 263 263 263 263 262 262 262 262 262 262 261 261 261 261 260 260 260 261 262 262 262 262 261 261 260
271 271 271 271 271 271 270 269 267 266 265 265 264 264 264 265 265 265 265 264 264 264 263 263 263 262 262 262 262 262 262 262 262 262 262 261 261 261 260 260 261 262 263 262 262 261 260 259 259
273 273 273 272 272 273 272 270 267 265 265 264 264 265 265 266 266 265 265 265 265 265 264 263 262 262 262 262 260 260 262 262 263 263 263 263 262 261 260 260 261 261 262 262 261 261 260 259 258
276 275 275 275 274 274 273 271 268 266 265 265 265 265 265 265 266 266 266 266 265 265 265 264 263 262 261 261 261 262 263 263 264 264 265 265 264 262 261 260 262 262 262 262 261 261 259 258 258
277 276 276 275 275 274 272 271 271 269 267 267 267 266 265 265 266 266 266 266 267 266 267 266 264 263 262 262 262 262 263 264 265 266 266 266 265 264 263 263 263 263 263 263 262 262 260 259 259
278 277 277 275 274 274 273 271 269 268 268 269 268 268 267 266 265 265 266 267 267 267 268 268 266 265 264 264 264 264 265 265 266 266 266 266 265 264 263 263 263 263 263 263 262 261 260 259 259
278 278 277 277 275 274 274 271 270 268 268 269 269 268 267 267 267 266 267 267 268 268 268 268 268 267 267 267 267 267 267 266 266 266 265 265 264 264 263 263 263 264 263 262 261 260 260 260 260
280 280 278 277 277 276 276 275 272 270 268 268 267 268 268 268 267 268 268 268 268 269 269 270 269 269 269 270 268 268 268 267 266 266 265 264 263 264 263 263 263 262 262 261 261 260 261 261 260
282 281 280 279 279 279 277 277 276 273 270 268 267 268 270 270 270 270 270 270 270 270 271 271 271 270 271 271 269 268 268 267 267 266 266 265 263 263 263 263 262 261 260 260 260 260 260 260 260
285 283 282 281 281 281 280 280 280 277 274 270 269 270 272 272 271 271 271 271 271 272 272 272 272 272 271 270 269 268 269 267 267 266 265 263 263 262 262 262 261 260 260 260 260 260 260 260 260
287 287 287 286 284 284 282 282 282 279 277 275 273 273 273 273 272 273 273 273 273 273 273 273 273 272 272 270 269 269 269 267 266 265 263 262 262 262 262 261 260 260 260 261 261 261 260 259 260
289 289 289 288 286 285 283 282 281 280 277 276 276 274 274 274 273 273 274 275 275 275 274 274 273 273 272 270 269 269 269 267 266 265 263 262 263 262 262 262 261 260 260 261 261 261 260 259 260
290 291 291 290 287 285 284 284 281 280 279 278 278 277 276 276 276 276 277 277 276 277 277 276 275 273 272 270 269 268 267 266 266 264 263 262 262 261 262 262 261 261 260 260 261 261 261 261 261
291 293 295 294 293 291 289 286 284 282 281 280 280 280 279 278 278 279 279 279 278 279 279 278 276 275 273 271 269 268 267 266 266 265 263 263 263 262 262 261 261 261 261 260 261 262 262 262 262
291 293 293 293 293 292 291 291 291 288 285 284 284 283 283 283 283 282 281 281 281 280 280 279 277 275 273 271 269 268 266 266 265 265 264 263 262 261 261 261 260 261 261 261 262 262 262 262 262
290 292 291 291 291 290 290 292 293 291 288 286 286 286 286 285 285 285 284 283 283 282 281 280 277 275 273 270 269 268 267 266 265 264 264 262 261 261 260 260 259 259 259 261 262 262 262 262 262
Height
5810 5811 5812 5814 5816 5817 5818 5819 5819 5821 5822 5823 5824 5825 5825 5826 5827 5830 5829 5829 5830 5830 5831 5831 5832 5833 5833 5834 5834 5834 5835 5835 5836 5837 5837 5838 5838 5838 5839 5839 5840 5840 5840 5841 5841 5841 5841 5841 5842
5806 5807 5809 5810 5811 5813 5815 5815 5816 5817 5819 5820 5820 5821 5822 5822 5823 5824 5824 5825 5826 5827 5827 5828 5828 5829 5830 5830 5831 5831 5832 5832 5833 5833 5834 5835 5835 5836 5836 5837 5837 5838 5838 5838 5838 5838 5839 5839 5839
5802 5803 5805 5806 5807 5809 5811 5811 5812 5813 5814 5815 5816 5817 5818 5818 5819 5820 5820 5821 5822 5823 5823 5824 5824 5825 5826 5827 5827 5828 5828 5829 5829 5830 5831 5831 5832 5833 5833 5834 5834 5835 5835 5835 5835 5835 5836 5836 5837
5798 5799 5800 5802 5803 5805 5806 5806 5807 5808 5810 5810 5812 5813 5813 5814 5815 5815 5816 5816 5817 5818 5819 5819 5820 5821 5821 5822 5823 5824 5824 5825 5825 5826 5827 5828 5828 5829 5830 5830 5831 5831 5832 5832 5832 5832 5833 5833 5833
5793 5794 5795 5796 5798 5800 5801 5801 5802 5804 5805 5805 5806 5808 5808 5809 5809 5810 5811 5811 5812 5813 5814 5814 5815 5816 5817 5817 5818 5819 5820 5820 5821 5822 5822 5823 5824 5825 5826 5826 5827 5827 5828 5828 5829 5829 5829 5830 5830
5788 5789 5790 5791 5793 5795 5796 5796 5796 5798 5799 5799 5800 5802 5802 5804 5804 5805 5805 5806 5806 5807 5808 5809 5810 5811 5812 5813 5813 5814 5815 5815 5816 5817 5817 5818 5819 5820 5821 5822 5822 5823 5823 5824 5824 5825 5826 5826 5827
5783 5783 5784 5785 5786 5789 5790 5790 5790 5792 5793 5793 5794 5796 5796 5798 5798 5799 5799 5800 5801 5802 5803 5804 5804 5805 5806 5807 5808 5809 5809 5810 5811 5811 5812 5813 5814 5815 5816 5817 5817 5818 5819 5819 5820 5820 5821 5822 5822
5776 5777 5778 5779 5780 5782 5784 5783 5784 5785 5786 5787 5788 5789 5790 5791 5792 5792 5793 5794 5794 5795 5796 5797 5798 5799 5800 5801 5802 5803 5803 5804 5805 5806 5806 5807 5808 5809 5810 5811 5812 5813 5813 5814 5815 5815 5816 5816 5817
5770 5771 5772 5773 5774 5775 5776 5776 5777 5778 5779 5780 5780 5781 5782 5783 5784 5785 5786 5787 5788 5789 5789 5790 5792 5793 5794 5795 5795 5796 5797 5798 5799 5799 5800 5801 5802 5803 5804 5805 5806 5807 5808 5808 5809 5809 5810 5811 5812
5764 5765 5766 5767 5767 5768 5769 5769 5770 5772 5772 5773 5773 5774 5774 5776 5777 5777 5779 5779 5780 5781 5782 5783 5784 5785 5786 5787 5788 5789 5790 5791 5792 5792 5793 5794 5795 5796 5797 5798 5799 5800 5801 5802 5802 5803 5804 5805 5805
5757 5758 5759 5759 5760 5761 5761 5762 5763 5764 5765 5765 5766 5766 5767 5768 5768 5769 5770 5772 5773 5774 5775 5776 5777 5777 5778 5779 5780 5781 5782 5783 5784 5784 5785 5786 5787 5788 5789 5790 5791 5792 5793 5794 5795 5796 5796 5798 5799
5750 5751 5752 5752 5752 5753 5754 5754 5755 5755 5757 5757 5757 5758 5758 5759 5760 5761 5762 5763 5765 5765 5766 5768 5768 5769 5770 5771 5772 5773 5774 5774 5775 5776 5777 5778 5779 5780 5781 5782 5783 5784 5785 5786 5787 5788 5789 5790 5791
5743 5744 5744 5744 5745 5745 5745 5746 5746 5747 5748 5748 5748 5748 5749 5750 5751 5752 5753 5754 5755 5756 5757 5759 5760 5760 5761 5762 5763 5764 5765 5765 5766 5767 5768 5769 5770 5771 5772 5773 5774 5775 5776 5777 5779 5779 5781 5782 5783
5736 5736 5736 5736 5737 5737 5737 5737 5737 5739 5738 5739 5739 5740 5740 5741 5742 5743 5744 5745 5746 5747 5748 5749 5750 5751 5751 5752 5753 5754 5755 5756 5757 5758 5759 5760 5760 5761 5762 5763 5764 5766 5767 5768 5769 5770 5772 5773 5774
5727 5728 5728 5729 5728 5728 5728 5728 5730 5730 5729 5729 5730 5730 5731 5732 5733 5733 5734 5735 5736 5737 5738 5739 5740 5741 5742 5742 5743 5744 5745 5746 5747 5748 5749 5750 5750 5751 5752 5753 5755 5756 5757 5758 5759 5761 5762 5763 5765
5719 5719 5720 5721 5719 5719 5720 5720 5721 5720 5720 5720 5721 5721 5722 5722 5723 5724 5724 5725 5726 5727 5728 5729 5730 5731 5732 5733 5733 5734 5735 5736 5737 5738 5739 5739 5740 5740 5742 5743 5744 5746 5747 5748 5749 5750 5752 5753 5755
5711 5711 5711 5711 5710 5709 5709 5710 5711 5710 5710 5711 5711 5712 5713 5713 5714 5714 5715 5715 5716 5717 5717 5718 5719 5720 5722 5723 5723 5724 5725 5726 5726 5727 5728 5729 5729 5730 5731 5732 5734 5735 5736 5737 5738 5740 5742 5743 5746
5703 5702 5702 5702 5702 5700 5700 5701 5701 5701 5700 5701 5701 5702 5703 5703 5704 5704 5705 5705 5706 5707 5707 5708 5709 5710 5711 5712 5713 5714 5714 5715 5716 5716 5717 5718 5718 5719 5720 5721 5723 5724 5725 5727 5728 5729 5731 5733 5735
5695 5694 5693 5694 5693 5692 5691 5691 5692 5691 5691 5691 5692 5693 5693 5693 5694 5695 5695 5696 5696 5697 5697 5697 5698 5699 5700 5701 5702 5702 5704 5704 5705 5705 5706 5707 5707 5708 5709 5710 5712 5713 5714 5716 5717 5718 5720 5722 5724
5687 5686 5685 5685 5684 5683 5682 5683 5683 5683 5683 5683 5683 5683 5684 5684 5685 5685 5686 5686 5687 5687 5687 5687 5688 5688 5689 5690 5690 5691 5692 5693 5694 5694 5695 5695 5696 5697 5698 5699 5700 5702 5703 5704 5706 5707 5709 5711 5713
5679 5678 5677 5676 5675 5675 5674 5675 5675 5675 5674 5674 5675 5674 5675 5675 5676 5676 5677 5677 5677 5677 5677 5677 5677 5678 5678 5678 5679 5679 5680 5681 5682 5683 5683 5684 5685 5685 5686 5688 5689 5690 5692 5693 5694 5696 5698 5700 5702
5672 5670 5669 5667 5666 5666 5666 5664 5667 5667 5666 5666 5666 5666 5666 5666 5667 5667 5667 5667 5668 5668 5668 5667 5667 5667 5667 5667 5668 5668 5669 5670 5670 5671 5672 5673 5673 5674 5675 5677 5678 5679 5681 5682 5684 5685 5687 5689 5691
5664 5663 5662 5660 5659 5658 5658 5656 5659 5658 5658 5658 5658 5658 5658 5657 5657 5657 5658 5658 5658 5658 5658 5657 5657 5657 5656 5656 5656 5657 5658 5658 5659 5659 5660 5661 5662 5663 5664 5666 5667 5669 5670 5671 5673 5674 5676 5677 5680
5657 5656 5655 5653 5652 5651 5652 5649 5650 5650 5650 5650 5650 5649 5649 5649 5648 5648 5648 5648 5648 5648 5647 5647 5646 5646 5646 5646 5646 5646 5646 5647 5647 5648 5649 5650 5651 5652 5653 5654 5656 5658 5659 5661 5662 5664 5665 5667 5669
5651 5650 5648 5645 5644 5645 5644 5642 5643 5642 5642 5642 5642 5641 5640 5640 5639 5639 5638 5638 5638 5638 5637 5636 5636 5635 5635 5635 5635 5635 5635 5635 5636 5636 5638 5639 5640 5642 5643 5644 5646 5647 5649 5650 5651 5653 5655 5657 5659
5645 5644 5642 5640 5638 5638 5637 5636 5637 5635 5634 5633 5633 5632 5631 5631 5630 5629 5629 5628 5628 5627 5626 5626 5625 5625 5624 5624 5624 5624 5623 5624 5625 5625 5627 5628 5630 5631 5632 5634 5635 5637 5638 5640 5641 5642 5644 5646 5648
5640 5638 5637 5634 5632 5631 5630 5630 5629 5627 5626 5625 5624 5623 5623 5622 5621 5620 5619 5618 5617 5616 5615 5614 5613 5613 5613 5612 5612 5612 5612 5613 5613 5614 5615 5617 5618 5620 5621 5623 5624 5626 5627 5629 5630 5632 5633 5635 5637
5635 5633 5631 5628 5625 5623 5623 5622 5622 5620 5618 5617 5616 5615 5614 5613 5611 5610 5609 5607 5606 5605 5604 5602 5601 5601 5600 5600 5600 5601 5601 5601 5602 5603 5604 5606 5607 5609 5610 5612 5614 5615 5617 5618 5620 5621 5623 5624 5626
5629 5628 5625 5622 5620 5618 5616 5618 5615 5612 5611 5609 5607 5606 5604 5603 5602 5600 5598 5597 5595 5594 5592 5591 5590 5589 5588 5588 5588 5589 5589 5590 5591 5591 5593 5594 5596 5597 5599 5601 5603 5605 5606 5608 5609 5610 5612 5613 5614
5623 5621 5619 5617 5614 5612 5609 5612 5608 5605 5603 5601 5599 5597 5596 5594 5592 5591 5589 5587 5585 5583 5582 5580 5579 5578 5578 5577 5577 5578 5578 5579 5580 5581 5582 5583 5585 5586 5588 5590 5592 5594 5596 5597 5599 5600 5601 5602 5604